Location: Melque
(41.0517°N, 4.4694°W)
Time: 03:40:16
(UTC+00:00)

Meteor 2-6 Rocket - Pass Details

Date: 11 December 2025
Orbit: 806 x 912 km, 81.3° (Epoch: 13 January)

Event Time Altitude Azimuth Distance (km) Brightness Sun altitude
Rises 19:19:51 0° 190° (S) 3,382 7.6 -27.5°
Reaches altitude 10° 19:22:13 10° 191° (S) 2,467 6.8 -27.9°
Maximum altitude 19:27:50 83° 279° (W) 880 4.2 -29.0°
Enters shadow 19:28:01 81° 313° (NW) 884 4.2 -29.0°
